STARLINK-30438, 58035

Orbit data source: Space-Track

STARLINK-30438, 58035 is a payload satellite owned by SpaceX/Seattle (US) in LEO that was launched on Mon, 09 Oct 2023 UTC via an FALCON 9 launch vehicle from the Air Force Western Test Range (AFWTR). Payload-class satellites include a variety of spacecraft equipped with specific instruments for various scientific and technological missions. These include communications satellites like Starlink; space stations such as the ISS; scientific satellites like the Hubble; Earth observation satellites from companies like Planet Labs, Umbra, and HawkEye 360; GPS; miniature CubeSats for education and research; and military/defense satellites.

Loading next visibility...
Identifier
58035, 2023-156H
Orbit
LEO
Country
Flag of USUS
Related business
Manufacturer
SpaceX/Seattle
Mission
Operational Commercial Communications
Bus & Motor
STARLINK V2M, Unknown motor
Mass
730 kg wet, ~700 kg dry
Launch date (UTC)
2023-10-09 (3 years ago)
Launch vehicle
FALCON 9
Launch site
Air Force Western Test Range (AFWTR)
Object type
Payload
Rocket body
Debris
Shape & HBR
Box + 2 Pan, 17.7 m
Radar Cross Section
33.884 m², Large (>1 m²)

Expand to show TLE details & history
Last TLE update: 3 days ago

TLE from 3 days ago
0 STARLINK-30438
1 58035U 23156H   26170.80251366 -.00003827  00000-0 -11713-3 0  9993
2 58035  53.1610 323.8043 0001066 100.3976 259.7145 15.30207481151901
Epoch: 2026-06-19T19:15Z
TLE epoch observation values (Epoch: 2026-06-19T19:15:37.180Z)
Latitude
-0°
Longitude
126.87312°
Altitude
476.223 km
Speed
7.629 km/s
True Right ascension
21h 35m 13s
True Declination
0° 00' 00"
Sunlit
Object was in full shadow at epoch
Visualization orbit readout
Latitude
Unknown
Longitude
Unknown
Altitude
Unknown
Speed
Unknown
Apparent Right ascension
Unknown
Apparent Declination
Unknown
Sunlit
N/A
Visualization observer readout
Local Sidereal Time
21:41:37
Azimuth
Unknown
Elevation
Unknown
Doppler factor
Unknown
Orbital elements
Apogee altitude
476.18 km
Perigee altitude
474.718 km
Semi-major axis
6,853.586 km
Eccentricity
0.00011
Inclination
53.161°
RAAN
323.8043°
Arg. of periapsis
100.3976°
True anomaly
259.70248°
Mean anomaly
259.7145°
Eccentric anomaly
259.70849°
Mean motion
3.82531 °/min
Orbital period
94.11 mins
BSTAR
-0.00011713
Loading maneuver chart data...
Computing Atmospheric mass density...
Loading historical data...
Loading historical data...
Loading historical data...
Loading historical data...
Loading historical data...
Loading historical data...
Loading historical data...

Documentation

Showing up to 5 results
|